| time (UTC) | temp C | wind direction | speed KPH | gust KPH | rain 1hr cm | rain 24hr cm | rain mn cm | humidity % | barometer mb |
| 20260509024515 | 14 | 312 | 1.6 | 6.4 | 0.00 | 0.00 | 0.00 | 77 | |
| 20260509023517 | 15 | 317 | 1.6 | 12.9 | 0.00 | 0.00 | 0.00 | 75 | |
| 20260509022516 | 16 | 283 | 1.6 | 6.4 | 0.00 | 0.00 | 0.00 | 68 | |
| 20260509021516 | 17 | 0.0 | 0.0 | 0.00 | 0.00 | 0.00 | 59 | ||
| 20260509020516 | 17 | 0.0 | 0.0 | 0.00 | 0.00 | 0.00 | 57 | ||
| 20260509015517 | 17 | 0.0 | 0.0 | 0.00 | 0.00 | 0.00 | 56 | ||
| 20260509014516 | 17 | 0.0 | 0.0 | 0.00 | 0.00 | 0.00 | 56 | ||
| 20260509013515 | 17 | 0.0 | 0.0 | 0.00 | 0.00 | 0.00 | 55 | ||
| 20260509012517 | 17 | 232 | 0.0 | 1.6 | 0.00 | 0.00 | 0.00 | 55 | |
| 20260509011516 | 17 | 234 | 1.6 | 3.2 | 0.00 | 0.00 | 0.00 | 53 | |
| 20260509010516 | 18 | 0.0 | 0.0 | 0.00 | 0.00 | 0.00 | 54 | ||
| 20260509005559 | 18 | 0.0 | 0.0 | 0.00 | 0.00 | 0.00 | 51 | ||
| 20260509004517 | 18 | 0.0 | 0.0 | 0.00 | 0.00 | 0.00 | 49 | ||
| 20260509003515 | 18 | 0.0 | 0.0 | 0.00 | 0.00 | 0.00 | 48 | ||
| 20260509002515 | 18 | 0.0 | 0.0 | 0.00 | 0.00 | 0.00 | 48 | ||
| 20260509001515 | 18 | 214 | 0.0 | 1.6 | 0.00 | 0.00 | 0.00 | 48 | |
| 20260509000516 | 18 | 199 | 0.0 | 1.6 | 0.00 | 0.00 | 0.00 | 47 | |
| 20260508235516 | 18 | 0.0 | 0.0 | 0.00 | 0.00 | 0.00 | 47 | ||
| 20260508234537 | 18 | 205 | 0.0 | 6.4 | 0.00 | 0.00 | 0.00 | 46 | |
| 20260508233518 | 19 | 0.0 | 0.0 | 0.00 | 0.00 | 0.00 | 46 | ||
| 20260508232515 | 19 | 207 | 0.0 | 1.6 | 0.00 | 0.00 | 0.00 | 46 | |
| 20260508231538 | 19 | 0.0 | 0.0 | 0.00 | 0.00 | 0.00 | 46 | ||
| 20260508230516 | 19 | 225 | 0.0 | 1.6 | 0.00 | 0.00 | 0.00 | 45 | |
| 20260508225518 | 19 | 210 | 0.0 | 3.2 | 0.00 | 0.00 | 0.00 | 45 | |
| 20260508224539 | 20 | 218 | 0.0 | 1.6 | 0.00 | 0.00 | 0.00 | 44 | |
| 20260508223517 | 20 | 213 | 1.6 | 6.4 | 0.00 | 0.00 | 0.00 | 44 | |
| 20260508222517 | 20 | 219 | 0.0 | 1.6 | 0.00 | 0.00 | 0.00 | 44 | |
| 20260508221515 | 20 | 204 | 1.6 | 9.7 | 0.00 | 0.00 | 0.00 | 43 | |
| 20260508215515 | 20 | 217 | 1.6 | 6.4 | 0.00 | 0.00 | 0.00 | 42 | |
| 20260508214556 | 20 | 215 | 0.0 | 1.6 | 0.00 | 0.00 | 0.00 | 42 | |
| 20260508213516 | 20 | 221 | 0.0 | 3.2 | 0.00 | 0.00 | 0.00 | 41 | |
| 20260508212516 | 20 | 229 | 1.6 | 3.2 | 0.00 | 0.00 | 0.00 | 41 | |
| 20260508211538 | 20 | 191 | 1.6 | 8.0 | 0.00 | 0.00 | 0.00 | 40 | |
| 20260508210515 | 20 | 216 | 0.0 | 3.2 | 0.00 | 0.00 | 0.00 | 42 | |
| 20260508205515 | 20 | 219 | 3.2 | 8.0 | 0.00 | 0.00 | 0.00 | 41 | |
| 20260508204516 | 20 | 212 | 1.6 | 4.8 | 0.00 | 0.00 | 0.00 | 41 | |
| 20260508203516 | 20 | 229 | 3.2 | 4.8 | 0.00 | 0.00 | 0.00 | 40 | |
| 20260508202516 | 20 | 221 | 3.2 | 6.4 | 0.00 | 0.00 | 0.00 | 41 | |
| 20260508201519 | 20 | 213 | 1.6 | 4.8 | 0.00 | 0.00 | 0.00 | 40 | |
| 20260508200534 | 20 | 228 | 1.6 | 3.2 | 0.00 | 0.00 | 0.00 | 41 | |
| 20260508195515 | 20 | 219 | 3.2 | 6.4 | 0.00 | 0.00 | 0.00 | 40 | |
| 20260508194516 | 20 | 222 | 3.2 | 6.4 | 0.00 | 0.00 | 0.00 | 39 | |
| 20260508193537 | 20 | 211 | 1.6 | 4.8 | 0.00 | 0.00 | 0.00 | 38 | |
| 20260508192516 | 20 | 224 | 3.2 | 8.0 | 0.00 | 0.00 | 0.00 | 38 | |
| 20260508191516 | 21 | 228 | 6.4 | 14.5 | 0.00 | 0.00 | 0.00 | 35 | |
| 20260508190517 | 21 | 219 | 3.2 | 12.9 | 0.00 | 0.00 | 0.00 | 38 | |
| 20260508185516 | 21 | 210 | 1.6 | 9.7 | 0.00 | 0.00 | 0.00 | 38 | |
| 20260508184517 | 21 | 221 | 1.6 | 6.4 | 0.00 | 0.00 | 0.00 | 40 | |
| 20260508183515 | 21 | 223 | 3.2 | 6.4 | 0.00 | 0.00 | 0.00 | 39 | |
| 20260508182517 | 21 | 235 | 3.2 | 4.8 | 0.00 | 0.00 | 0.00 | 39 | |
| 20260508181516 | 21 | 218 | 1.6 | 6.4 | 0.00 | 0.00 | 0.00 | 38 | |
| 20260508180559 | 21 | 214 | 3.2 | 9.7 | 0.00 | 0.00 | 0.00 | 38 | |
| 20260508175518 | 21 | 220 | 3.2 | 9.7 | 0.00 | 0.00 | 0.00 | 38 | |
| 20260508174514 | 21 | 214 | 1.6 | 6.4 | 0.00 | 0.00 | 0.00 | 41 | |
| 20260508173516 | 21 | 217 | 4.8 | 11.3 | 0.00 | 0.00 | 0.00 | 40 | |
| 20260508172515 | 20 | 227 | 1.6 | 6.4 | 0.00 | 0.00 | 0.00 | 42 | |
| 20260508171516 | 20 | 213 | 4.8 | 11.3 | 0.00 | 0.00 | 0.00 | 40 | |
| 20260508170516 | 20 | 218 | 4.8 | 12.9 | 0.00 | 0.00 | 0.00 | 40 | |
| 20260508165518 | 20 | 210 | 4.8 | 19.3 | 0.00 | 0.00 | 0.00 | 43 | |
| 20260508164518 | 20 | 219 | 1.6 | 4.8 | 0.00 | 0.00 | 0.00 | 42 | |
| 20260508163535 | 20 | 205 | 4.8 | 16.1 | 0.00 | 0.00 | 0.00 | 43 | |
| 20260508162515 | 20 | 227 | 3.2 | 6.4 | 0.00 | 0.00 | 0.00 | 44 | |
| 20260508161517 | 20 | 219 | 3.2 | 8.0 | 0.00 | 0.00 | 0.00 | 44 | |
| 20260508160516 | 18 | 233 | 3.2 | 6.4 | 0.00 | 0.00 | 0.00 | 45 | |
| 20260508155536 | 18 | 219 | 4.8 | 8.0 | 0.00 | 0.00 | 0.00 | 45 | |
| 20260508154517 | 18 | 219 | 4.8 | 11.3 | 0.00 | 0.00 | 0.00 | 46 | |
| 20260508153517 | 18 | 215 | 3.2 | 11.3 | 0.00 | 0.00 | 0.00 | 46 | |
| 20260508152515 | 18 | 228 | 3.2 | 6.4 | 0.00 | 0.00 | 0.00 | 47 | |
| 20260508151515 | 18 | 226 | 3.2 | 8.0 | 0.00 | 0.00 | 0.00 | 47 | |
| 20260508150515 | 17 | 226 | 1.6 | 6.4 | 0.00 | 0.00 | 0.00 | 48 | |
| 20260508145516 | 17 | 227 | 3.2 | 8.0 | 0.00 | 0.00 | 0.00 | 47 | |
| 20260508144602 | 16 | 230 | 3.2 | 6.4 | 0.00 | 0.00 | 0.00 | 48 | |
| 20260508143520 | 16 | 228 | 3.2 | 6.4 | 0.00 | 0.00 | 0.00 | 48 | |
| 20260508142517 | 16 | 219 | 1.6 | 8.0 | 0.00 | 0.00 | 0.00 | 50 | |
| 20260508141515 | 16 | 224 | 3.2 | 6.4 | 0.00 | 0.00 | 0.00 | 50 | |
| 20260508140515 | 15 | 227 | 3.2 | 11.3 | 0.00 | 0.00 | 0.00 | 50 | |
| 20260508135516 | 15 | 233 | 3.2 | 6.4 | 0.00 | 0.00 | 0.00 | 50 | |
| 20260508134517 | 15 | 229 | 1.6 | 8.0 | 0.00 | 0.00 | 0.00 | 51 | |
| 20260508133517 | 14 | 228 | 1.6 | 8.0 | 0.00 | 0.00 | 0.00 | 51 | |
| 20260508132538 | 14 | 219 | 3.2 | 9.7 | 0.00 | 0.00 | 0.00 | 51 | |
| 20260508131515 | 13 | 230 | 1.6 | 6.4 | 0.00 | 0.00 | 0.00 | 53 | |
| 20260508130517 | 13 | 226 | 3.2 | 6.4 | 0.00 | 0.00 | 0.00 | 53 | |
| 20260508125515 | 12 | 215 | 1.6 | 3.2 | 0.00 | 0.00 | 0.00 | 55 | |
| 20260508124516 | 12 | 218 | 1.6 | 9.7 | 0.00 | 0.00 | 0.00 | 56 | |
| 20260508123516 | 11 | 220 | 1.6 | 3.2 | 0.00 | 0.00 | 0.00 | 57 | |
| 20260508122559 | 11 | 211 | 1.6 | 6.4 | 0.00 | 0.00 | 0.00 | 58 | |
| 20260508121517 | 11 | 224 | 0.0 | 1.6 | 0.00 | 0.00 | 0.00 | 60 | |
| 20260508120516 | 10 | 211 | 1.6 | 3.2 | 0.00 | 0.00 | 0.00 | 60 | |
| 20260508115537 | 10 | 215 | 0.0 | 1.6 | 0.00 | 0.00 | 0.00 | 62 | |
| 20260508114515 | 10 | 225 | 0.0 | 1.6 | 0.00 | 0.00 | 0.00 | 62 | |
| 20260508113516 | 10 | 219 | 1.6 | 3.2 | 0.00 | 0.00 | 0.00 | 62 | |
| 20260508112516 | 9 | 217 | 1.6 | 3.2 | 0.00 | 0.00 | 0.00 | 62 | |
| 20260508111517 | 10 | 213 | 0.0 | 3.2 | 0.00 | 0.00 | 0.00 | 62 | |
| 20260508110517 | 10 | 209 | 0.0 | 1.6 | 0.00 | 0.00 | 0.00 | 61 | |
| 20260508105515 | 10 | 198 | 0.0 | 3.2 | 0.00 | 0.00 | 0.00 | 61 | |
| 20260508104516 | 10 | 221 | 0.0 | 1.6 | 0.00 | 0.00 | 0.00 | 61 | |
| 20260508103515 | 10 | 225 | 0.0 | 1.6 | 0.00 | 0.00 | 0.00 | 61 | |
| 20260508102517 | 9 | 210 | 0.0 | 1.6 | 0.00 | 0.00 | 0.00 | 61 | |
| 20260508101536 | 9 | 209 | 0.0 | 3.2 | 0.00 | 0.00 | 0.00 | 61 | |
| 20260508100518 | 9 | 220 | 0.0 | 1.6 | 0.00 | 0.00 | 0.00 | 62 | |
| 20260508095517 | 9 | 224 | 0.0 | 1.6 | 0.00 | 0.00 | 0.00 | 62 | |
| 20260508094516 | 9 | 226 | 0.0 | 1.6 | 0.00 | 0.00 | 0.00 | 62 | |
| 20260508093515 | 9 | 220 | 0.0 | 1.6 | 0.00 | 0.00 | 0.00 | 62 | |
| 20260508092515 | 9 | 222 | 0.0 | 1.6 | 0.00 | 0.00 | 0.00 | 62 | |
| 20260508091516 | 9 | 226 | 0.0 | 1.6 | 0.00 | 0.00 | 0.00 | 62 | |
| 20260508090516 | 9 | 219 | 0.0 | 1.6 | 0.00 | 0.00 | 0.00 | 62 | |
| 20260508085517 | 9 | 229 | 0.0 | 1.6 | 0.00 | 0.00 | 0.00 | 61 | |
| 20260508084538 | 9 | 224 | 0.0 | 1.6 | 0.00 | 0.00 | 0.00 | 61 | |
| 20260508083514 | 9 | 224 | 0.0 | 1.6 | 0.00 | 0.00 | 0.00 | 61 | |
| 20260508082515 | 9 | 223 | 0.0 | 1.6 | 0.00 | 0.00 | 0.00 | 61 | |
| 20260508081516 | 9 | 218 | 0.0 | 1.6 | 0.00 | 0.00 | 0.00 | 60 | |
| 20260508080516 | 9 | 220 | 0.0 | 1.6 | 0.00 | 0.00 | 0.00 | 60 | |
| 20260508075516 | 9 | 217 | 0.0 | 1.6 | 0.00 | 0.00 | 0.00 | 59 | |
| 20260508074519 | 9 | 219 | 0.0 | 1.6 | 0.00 | 0.00 | 0.00 | 60 | |
| 20260508073601 | 9 | 220 | 0.0 | 1.6 | 0.00 | 0.00 | 0.00 | 60 | |
| 20260508072515 | 9 | 227 | 0.0 | 1.6 | 0.00 | 0.00 | 0.00 | 61 | |
| 20260508071517 | 9 | 221 | 0.0 | 1.6 | 0.00 | 0.00 | 0.00 | 61 | |
| 20260508070515 | 9 | 222 | 0.0 | 1.6 | 0.00 | 0.00 | 0.00 | 60 | |
| 20260508065516 | 9 | 204 | 0.0 | 1.6 | 0.00 | 0.00 | 0.00 | 60 | |
| 20260508064516 | 9 | 196 | 0.0 | 1.6 | 0.00 | 0.00 | 0.00 | 60 | |
| 20260508063538 | 9 | 223 | 0.0 | 3.2 | 0.00 | 0.00 | 0.00 | 60 | |
| 20260508062518 | 9 | 222 | 0.0 | 1.6 | 0.00 | 0.00 | 0.00 | 60 | |
| 20260508061535 | 10 | 212 | 0.0 | 1.6 | 0.00 | 0.00 | 0.00 | 59 | |
| 20260508060516 | 10 | 220 | 0.0 | 1.6 | 0.00 | 0.00 | 0.00 | 58 | |
| 20260508055515 | 10 | 0.0 | 0.0 | 0.00 | 0.00 | 0.00 | 57 | ||
| 20260508054516 | 10 | 0.0 | 0.0 | 0.00 | 0.00 | 0.00 | 57 | ||
| 20260508053516 | 10 | 0.0 | 0.0 | 0.00 | 0.00 | 0.00 | 57 | ||
| 20260508052538 | 10 | 0.0 | 0.0 | 0.00 | 0.00 | 0.00 | 56 | ||
| 20260508051517 | 10 | 0.0 | 0.0 | 0.00 | 0.00 | 0.00 | 55 | ||
| 20260508050535 | 10 | 197 | 0.0 | 1.6 | 0.00 | 0.00 | 0.00 | 55 | |
| 20260508045515 | 10 | 199 | 0.0 | 3.2 | 0.00 | 0.00 | 0.00 | 55 | |
| 20260508044518 | 10 | 196 | 0.0 | 3.2 | 0.00 | 0.00 | 0.00 | 55 | |
| 20260508043516 | 10 | 216 | 0.0 | 1.6 | 0.00 | 0.00 | 0.00 | 55 | |
| 20260508042516 | 10 | 210 | 0.0 | 1.6 | 0.00 | 0.00 | 0.00 | 56 | |
| 20260508041537 | 10 | 0.0 | 0.0 | 0.00 | 0.00 | 0.00 | 57 | ||
| 20260508040518 | 10 | 0.0 | 0.0 | 0.00 | 0.00 | 0.00 | 57 | ||
| 20260508035515 | 10 | 0.0 | 0.0 | 0.00 | 0.00 | 0.00 | 57 | ||
| 20260508034515 | 10 | 0.0 | 0.0 | 0.00 | 0.00 | 0.00 | 56 | ||
| 20260508033515 | 10 | 0.0 | 0.0 | 0.00 | 0.00 | 0.00 | 55 | ||
| 20260508032516 | 10 | 0.0 | 0.0 | 0.00 | 0.00 | 0.00 | 55 | ||
| 20260508031517 | 10 | 0.0 | 0.0 | 0.00 | 0.00 | 0.00 | 55 | ||
| 20260508030519 | 10 | 0.0 | 0.0 | 0.00 | 0.00 | 0.00 | 54 | ||
| 20260508025519 | 10 | 0.0 | 0.0 | 0.00 | 0.00 | 0.00 | 54 |